Wetterdaten: aktuell Samstag, 30.05.2020 12:50
Datum Zeit Temp. A. Feuchte A. Luftdruck Regen Wind Richtung Richtung Sonnenschein UV Solar Taupunkt Windchill Windben Empfang
30.05.2020 12:50 6,2 C 88 % 1021,3 hPa 0,0 l/m 9,7 km/h (2 Bft) W-SW 247 5 min 3,1 UV-I 403 W/m 4,4 C 3,6 C 17,7 km/h (3 Bft) 100,00 %
30.05.2020 12:45 6,6 C 89 % 1021,3 hPa 0,0 l/m 8,0 km/h (2 Bft) W-SW 247 5 min 3,4 UV-I 455 W/m 4,9 C 5,3 C 14,5 km/h (3 Bft) 100,00 %
30.05.2020 12:40 6,6 C 92 % 1021,3 hPa 0,0 l/m 8,0 km/h (2 Bft) W-SW 247 5 min 4,9 UV-I 638 W/m 5,4 C 5,3 C 16,1 km/h (3 Bft) 100,00 %
30.05.2020 12:35 6,0 C 93 % 1021,3 hPa 0,0 l/m 11,3 km/h (2 Bft) W-SW 247 5 min 4,4 UV-I 680 W/m 5,0 C 2,3 C 17,7 km/h (3 Bft) 100,00 %
30.05.2020 12:30 5,7 C 95 % 1021,3 hPa 0,0 l/m 11,3 km/h (2 Bft) W-SW 247 5 min 4,6 UV-I 647 W/m 5,0 C 2,0 C 17,7 km/h (3 Bft) 100,00 %
30.05.2020 12:25 5,4 C 95 % 1021,3 hPa 0,0 l/m 8,0 km/h (2 Bft) W-SW 247 5 min 2,3 UV-I 318 W/m 4,7 C 4,0 C 16,1 km/h (3 Bft) 100,00 %
30.05.2020 12:20 5,2 C 95 % 1021,3 hPa 0,0 l/m 8,0 km/h (2 Bft) W-SW 247 5 min 2,7 UV-I 352 W/m 4,5 C 3,8 C 12,9 km/h (3 Bft) 100,00 %
30.05.2020 12:15 5,1 C 95 % 1021,3 hPa 0,0 l/m 4,8 km/h (1 Bft) W-NW 292 5 min 2,1 UV-I 269 W/m 4,4 C 5,1 C 9,7 km/h (2 Bft) 100,00 %
30.05.2020 12:10 5,2 C 94 % 1021,3 hPa 0,0 l/m 4,8 km/h (1 Bft) W-SW 247 5 min 2,1 UV-I 278 W/m 4,3 C 5,2 C 9,7 km/h (2 Bft) 100,00 %
30.05.2020 12:05 5,3 C 95 % 1021,4 hPa 0,0 l/m 3,2 km/h (1 Bft) NW 315 5 min 1,6 UV-I 206 W/m 4,6 C 5,3 C 6,4 km/h (2 Bft) 100,00 %
30.05.2020 12:00 5,4 C 96 % 1021,3 hPa 0,0 l/m 3,2 km/h (1 Bft) NW 315 5 min 2,4 UV-I 315 W/m 4,8 C 5,4 C 4,8 km/h (1 Bft) 100,00 %
30.05.2020 11:55 5,1 C 96 % 1021,3 hPa 0,0 l/m 4,8 km/h (1 Bft) NW 315 5 min 2,3 UV-I 304 W/m 4,5 C 5,1 C 8,0 km/h (2 Bft) 100,00 %
30.05.2020 11:50 5,0 C 96 % 1021,5 hPa 0,0 l/m 3,2 km/h (1 Bft) NW 315 0 min 1,1 UV-I 141 W/m 4,4 C 5,0 C 6,4 km/h (2 Bft) 100,00 %
30.05.2020 11:45 5,1 C 96 % 1021,5 hPa 0,0 l/m 3,2 km/h (1 Bft) NW 315 0 min 0,5 UV-I 72 W/m 4,5 C 5,1 C 8,0 km/h (2 Bft) 100,00 %
30.05.2020 11:40 5,1 C 97 % 1021,5 hPa 0,0 l/m 4,8 km/h (1 Bft) N-NO 22 0 min 0,8 UV-I 104 W/m 4,7 C 5,1 C 16,1 km/h (3 Bft) 100,00 %
30.05.2020 11:35 5,1 C 97 % 1021,6 hPa 0,0 l/m 3,2 km/h (1 Bft) W-NW 292 0 min 0,8 UV-I 98 W/m 4,7 C 5,1 C 9,7 km/h (2 Bft) 100,00 %
30.05.2020 11:30 5,2 C 97 % 1021,7 hPa 0,0 l/m 3,2 km/h (1 Bft) N-NO 22 0 min 0,8 UV-I 97 W/m 4,8 C 5,2 C 6,4 km/h (2 Bft) 100,00 %
30.05.2020 11:25 5,0 C 97 % 1021,6 hPa 0,0 l/m 4,8 km/h (1 Bft) N-NO 22 0 min 1,0 UV-I 125 W/m 4,6 C 5,0 C 17,7 km/h (3 Bft) 100,00 %
30.05.2020 11:20 5,4 C 97 % 1021,6 hPa 0,0 l/m 4,8 km/h (1 Bft) W-NW 292 0 min 1,0 UV-I 125 W/m 5,0 C 5,4 C 11,3 km/h (2 Bft) 100,00 %
30.05.2020 11:15 5,6 C 97 % 1021,5 hPa 0,0 l/m 6,4 km/h (2 Bft) W-NW 292 0 min 0,7 UV-I 95 W/m 5,2 C 5,6 C 12,9 km/h (3 Bft) 100,00 %
30.05.2020 11:10 5,4 C 97 % 1021,5 hPa 0,0 l/m 6,4 km/h (2 Bft) W-NW 292 0 min 0,7 UV-I 104 W/m 5,0 C 5,4 C 12,9 km/h (3 Bft) 100,00 %
30.05.2020 11:05 5,6 C 97 % 1021,5 hPa 0,0 l/m 4,8 km/h (1 Bft) NW 315 0 min 0,8 UV-I 114 W/m 5,2 C 5,6 C 12,9 km/h (3 Bft) 100,00 %
30.05.2020 11:00 5,4 C 97 % 1021,6 hPa 0,0 l/m 4,8 km/h (1 Bft) W 270 0 min 0,6 UV-I 84 W/m 5,0 C 5,4 C 11,3 km/h (2 Bft) 100,00 %
30.05.2020 10:55 5,2 C 97 % 1021,6 hPa 0,0 l/m 4,8 km/h (1 Bft) NW 315 0 min 0,7 UV-I 102 W/m 4,8 C 5,2 C 12,9 km/h (3 Bft) 100,00 %
30.05.2020 10:50 5,3 C 97 % 1021,6 hPa 0,0 l/m 6,4 km/h (2 Bft) NW 315 0 min 0,7 UV-I 95 W/m 4,9 C 5,3 C 14,5 km/h (3 Bft) 100,00 %
30.05.2020 10:45 5,3 C 97 % 1021,5 hPa 0,0 l/m 8,0 km/h (2 Bft) W-NW 292 0 min 0,7 UV-I 88 W/m 4,9 C 3,9 C 16,1 km/h (3 Bft) 100,00 %
30.05.2020 10:40 5,3 C 97 % 1021,5 hPa 0,0 l/m 6,4 km/h (2 Bft) W-NW 292 0 min 0,5 UV-I 74 W/m 4,9 C 5,3 C 14,5 km/h (3 Bft) 100,00 %
30.05.2020 10:35 5,3 C 97 % 1021,5 hPa 0,0 l/m 8,0 km/h (2 Bft) W-NW 292 0 min 0,6 UV-I 90 W/m 4,9 C 3,9 C 14,5 km/h (3 Bft) 100,00 %
30.05.2020 10:30 5,4 C 97 % 1021,5 hPa 0,0 l/m 8,0 km/h (2 Bft) NW 315 0 min 0,6 UV-I 88 W/m 5,0 C 4,0 C 17,7 km/h (3 Bft) 100,00 %
30.05.2020 10:25 5,5 C 97 % 1021,4 hPa 0,0 l/m 3,2 km/h (1 Bft) W-NW 292 0 min 0,7 UV-I 107 W/m 5,1 C 5,5 C 14,5 km/h (3 Bft) 100,00 %
30.05.2020 10:20 5,6 C 97 % 1021,4 hPa 0,0 l/m 4,8 km/h (1 Bft) W-NW 292 0 min 0,9 UV-I 128 W/m 5,2 C 5,6 C 12,9 km/h (3 Bft) 100,00 %
30.05.2020 10:15 5,6 C 97 % 1021,4 hPa 0,0 l/m 4,8 km/h (1 Bft) W-NW 292 0 min 0,7 UV-I 107 W/m 5,2 C 5,6 C 11,3 km/h (2 Bft) 100,00 %
30.05.2020 10:10 5,5 C 97 % 1021,4 hPa 0,0 l/m 6,4 km/h (2 Bft) NW 315 0 min 0,7 UV-I 100 W/m 5,1 C 5,5 C 14,5 km/h (3 Bft) 100,00 %
30.05.2020 10:05 5,4 C 97 % 1021,5 hPa 0,0 l/m 9,7 km/h (2 Bft) W-NW 292 0 min 0,5 UV-I 79 W/m 5,0 C 2,7 C 19,3 km/h (3 Bft) 100,00 %
30.05.2020 10:00 5,4 C 96 % 1021,4 hPa 0,0 l/m 6,4 km/h (2 Bft) NW 315 0 min 0,6 UV-I 95 W/m 4,8 C 5,4 C 16,1 km/h (3 Bft) 100,00 %
30.05.2020 09:55 5,4 C 96 % 1021,4 hPa 0,0 l/m 9,7 km/h (2 Bft) W-NW 292 0 min 0,7 UV-I 107 W/m 4,8 C 2,7 C 16,1 km/h (3 Bft) 100,00 %
30.05.2020 09:50 5,4 C 96 % 1021,4 hPa 0,0 l/m 11,3 km/h (2 Bft) W-NW 292 0 min 0,6 UV-I 88 W/m 4,8 C 1,7 C 17,7 km/h (3 Bft) 100,00 %
30.05.2020 09:45 5,3 C 96 % 1021,3 hPa 0,0 l/m 12,9 km/h (3 Bft) W-NW 292 0 min 0,0 UV-I 72 W/m 4,7 C 0,6 C 20,9 km/h (4 Bft) 100,00 %
30.05.2020 09:40 5,4 C 96 % 1021,4 hPa 0,0 l/m 11,3 km/h (2 Bft) W 270 0 min 0,6 UV-I 93 W/m 4,8 C 1,7 C 17,7 km/h (3 Bft) 100,00 %
30.05.2020 09:35 5,5 C 96 % 1021,4 hPa 0,0 l/m 9,7 km/h (2 Bft) W-NW 292 0 min 0,6 UV-I 102 W/m 4,9 C 2,8 C 16,1 km/h (3 Bft) 100,00 %
30.05.2020 09:30 5,4 C 96 % 1021,3 hPa 0,0 l/m 6,4 km/h (2 Bft) W 270 0 min 0,6 UV-I 104 W/m 4,8 C 5,4 C 14,5 km/h (3 Bft) 100,00 %
30.05.2020 09:25 5,5 C 96 % 1021,3 hPa 0,0 l/m 6,4 km/h (2 Bft) W 270 0 min 0,7 UV-I 120 W/m 4,9 C 5,5 C 14,5 km/h (3 Bft) 100,00 %
30.05.2020 09:20 5,5 C 96 % 1021,4 hPa 0,0 l/m 6,4 km/h (2 Bft) W 270 0 min 0,7 UV-I 114 W/m 4,9 C 5,5 C 14,5 km/h (3 Bft) 100,00 %
30.05.2020 09:15 5,4 C 95 % 1021,3 hPa 0,0 l/m 9,7 km/h (2 Bft) W-SW 247 0 min 0,7 UV-I 116 W/m 4,7 C 2,7 C 16,1 km/h (3 Bft) 100,00 %
30.05.2020 09:10 5,4 C 96 % 1021,3 hPa 0,0 l/m 11,3 km/h (2 Bft) W 270 0 min 0,7 UV-I 116 W/m 4,8 C 1,7 C 17,7 km/h (3 Bft) 100,00 %
30.05.2020 09:05 5,4 C 96 % 1021,3 hPa 0,0 l/m 11,3 km/h (2 Bft) W 270 0 min 0,7 UV-I 120 W/m 4,8 C 1,7 C 14,5 km/h (3 Bft) 100,00 %
30.05.2020 09:00 5,4 C 95 % 1021,2 hPa 0,0 l/m 12,9 km/h (3 Bft) W 270 0 min 0,6 UV-I 107 W/m 4,7 C 0,7 C 19,3 km/h (3 Bft) 100,00 %
30.05.2020 08:55 5,3 C 95 % 1021,3 hPa 0,0 l/m 12,9 km/h (3 Bft) W 270 0 min 0,5 UV-I 91 W/m 4,6 C 0,6 C 17,7 km/h (3 Bft) 100,00 %
30.05.2020 08:50 5,3 C 95 % 1021,3 hPa 0,0 l/m 11,3 km/h (2 Bft) W 270 0 min 0,0 UV-I 77 W/m 4,6 C 1,5 C 17,7 km/h (3 Bft) 100,00 %
30.05.2020 08:45 5,3 C 95 % 1021,3 hPa 0,0 l/m 12,9 km/h (3 Bft) W 270 0 min 0,0 UV-I 77 W/m 4,6 C 0,6 C 17,7 km/h (3 Bft) 100,00 %
30.05.2020 08:40 5,3 C 95 % 1021,4 hPa 0,0 l/m 11,3 km/h (2 Bft) W 270 0 min 0,0 UV-I 79 W/m 4,6 C 1,5 C 20,9 km/h (4 Bft) 100,00 %
30.05.2020 08:35 5,3 C 95 % 1021,4 hPa 0,0 l/m 12,9 km/h (3 Bft) W 270 0 min 0,0 UV-I 79 W/m 4,6 C 0,6 C 19,3 km/h (3 Bft) 100,00 %
30.05.2020 08:30 5,3 C 95 % 1021,4 hPa 0,0 l/m 11,3 km/h (2 Bft) W 270 0 min 0,0 UV-I 76 W/m 4,6 C 1,5 C 16,1 km/h (3 Bft) 100,00 %
30.05.2020 08:25 5,3 C 95 % 1021,4 hPa 0,0 l/m 9,7 km/h (2 Bft) W 270 0 min 0,0 UV-I 76 W/m 4,6 C 2,6 C 16,1 km/h (3 Bft) 100,00 %
30.05.2020 08:20 5,3 C 95 % 1021,4 hPa 0,0 l/m 9,7 km/h (2 Bft) W 270 0 min 0,0 UV-I 76 W/m 4,6 C 2,6 C 16,1 km/h (3 Bft) 100,00 %
30.05.2020 08:15 5,3 C 95 % 1021,4 hPa 0,0 l/m 11,3 km/h (2 Bft) W 270 0 min 0,0 UV-I 70 W/m 4,6 C 1,5 C 16,1 km/h (3 Bft) 100,00 %
30.05.2020 08:10 5,3 C 95 % 1021,5 hPa 0,0 l/m 11,3 km/h (2 Bft) W 270 0 min 0,0 UV-I 69 W/m 4,6 C 1,5 C 14,5 km/h (3 Bft) 100,00 %
30.05.2020 08:05 5,3 C 95 % 1021,4 hPa 0,0 l/m 9,7 km/h (2 Bft) W-NW 292 0 min 0,0 UV-I 69 W/m 4,6 C 2,6 C 16,1 km/h (3 Bft) 100,00 %
30.05.2020 08:00 5,3 C 95 % 1021,4 hPa 0,0 l/m 9,7 km/h (2 Bft) W-NW 292 0 min 0,0 UV-I 70 W/m 4,6 C 2,6 C 16,1 km/h (3 Bft) 100,00 %
30.05.2020 07:55 5,3 C 95 % 1021,4 hPa 0,0 l/m 12,9 km/h (3 Bft) W 270 0 min 0,0 UV-I 72 W/m 4,6 C 0,6 C 17,7 km/h (3 Bft) 100,00 %
30.05.2020 07:50 5,3 C 95 % 1021,4 hPa 0,0 l/m 14,5 km/h (3 Bft) W 270 0 min 0,0 UV-I 83 W/m 4,6 C -0,3 C 20,9 km/h (4 Bft) 100,00 %
30.05.2020 07:45 5,3 C 95 % 1021,4 hPa 0,0 l/m 12,9 km/h (3 Bft) W 270 0 min 0,0 UV-I 83 W/m 4,6 C 0,6 C 20,9 km/h (4 Bft) 100,00 %
30.05.2020 07:40 5,3 C 94 % 1021,4 hPa 0,0 l/m 12,9 km/h (3 Bft) W 270 0 min 0,0 UV-I 79 W/m 4,4 C 0,6 C 19,3 km/h (3 Bft) 100,00 %
30.05.2020 07:35 5,3 C 94 % 1021,4 hPa 0,0 l/m 12,9 km/h (3 Bft) W 270 0 min 0,0 UV-I 74 W/m 4,4 C 0,6 C 22,5 km/h (4 Bft) 100,00 %
30.05.2020 07:30 5,3 C 94 % 1021,5 hPa 0,0 l/m 11,3 km/h (2 Bft) W 270 0 min 0,0 UV-I 70 W/m 4,4 C 1,5 C 16,1 km/h (3 Bft) 100,00 %
30.05.2020 07:25 5,3 C 94 % 1021,4 hPa 0,0 l/m 14,5 km/h (3 Bft) W 270 0 min 0,0 UV-I 65 W/m 4,4 C -0,3 C 19,3 km/h (3 Bft) 100,00 %
30.05.2020 07:20 5,3 C 94 % 1021,5 hPa 0,0 l/m 14,5 km/h (3 Bft) W 270 0 min 0,0 UV-I 54 W/m 4,4 C -0,3 C 22,5 km/h (4 Bft) 100,00 %
30.05.2020 07:15 5,3 C 93 % 1021,4 hPa 0,0 l/m 14,5 km/h (3 Bft) W 270 0 min 0,0 UV-I 42 W/m 4,3 C -0,3 C 22,5 km/h (4 Bft) 100,00 %
30.05.2020 07:10 5,4 C 93 % 1021,4 hPa 0,0 l/m 12,9 km/h (3 Bft) W-NW 292 0 min 0,0 UV-I 35 W/m 4,4 C 0,7 C 19,3 km/h (3 Bft) 100,00 %
30.05.2020 07:05 5,4 C 93 % 1021,4 hPa 0,0 l/m 12,9 km/h (3 Bft) W-NW 292 0 min 0,0 UV-I 40 W/m 4,4 C 0,7 C 22,5 km/h (4 Bft) 100,00 %
30.05.2020 07:00 5,4 C 93 % 1021,4 hPa 0,0 l/m 12,9 km/h (3 Bft) W-NW 292 0 min 0,0 UV-I 40 W/m 4,4 C 0,7 C 17,7 km/h (3 Bft) 100,00 %
30.05.2020 06:55 5,4 C 92 % 1021,6 hPa 0,0 l/m 12,9 km/h (3 Bft) W 270 0 min 0,0 UV-I 37 W/m 4,2 C 0,7 C 19,3 km/h (3 Bft) 100,00 %
30.05.2020 06:50 5,4 C 92 % 1021,6 hPa 0,0 l/m 12,9 km/h (3 Bft) W 270 0 min 0,0 UV-I 33 W/m 4,2 C 0,7 C 19,3 km/h (3 Bft) 100,00 %
30.05.2020 06:45 5,5 C 91 % 1021,6 hPa 0,0 l/m 14,5 km/h (3 Bft) W 270 0 min 0,0 UV-I 30 W/m 4,2 C -0,1 C 20,9 km/h (4 Bft) 100,00 %
30.05.2020 06:40 5,5 C 91 % 1021,5 hPa 0,0 l/m 14,5 km/h (3 Bft) W 270 0 min 0,0 UV-I 19 W/m 4,2 C -0,1 C 22,5 km/h (4 Bft) 100,00 %
30.05.2020 06:35 5,5 C 91 % 1021,6 hPa 0,0 l/m 14,5 km/h (3 Bft) W 270 0 min 0,0 UV-I 18 W/m 4,2 C -0,1 C 19,3 km/h (3 Bft) 100,00 %
30.05.2020 06:30 5,6 C 91 % 1021,5 hPa 0,0 l/m 12,9 km/h (3 Bft) W 270 0 min 0,0 UV-I 18 W/m 4,2 C 0,9 C 19,3 km/h (3 Bft) 100,00 %
30.05.2020 06:25 5,6 C 91 % 1021,7 hPa 0,0 l/m 14,5 km/h (3 Bft) W 270 0 min 0,0 UV-I 16 W/m 4,2 C 0,1 C 20,9 km/h (4 Bft) 100,00 %
30.05.2020 06:20 5,6 C 91 % 1021,6 hPa 0,0 l/m 12,9 km/h (3 Bft) W 270 0 min 0,0 UV-I 14 W/m 4,2 C 0,9 C 17,7 km/h (3 Bft) 100,00 %
30.05.2020 06:15 5,6 C 91 % 1021,7 hPa 0,0 l/m 12,9 km/h (3 Bft) W 270 0 min 0,0 UV-I 14 W/m 4,2 C 0,9 C 16,1 km/h (3 Bft) 100,00 %
30.05.2020 06:10 5,6 C 91 % 1021,8 hPa 0,0 l/m 12,9 km/h (3 Bft) W 270 0 min 0,0 UV-I 12 W/m 4,2 C 0,9 C 19,3 km/h (3 Bft) 100,00 %
30.05.2020 06:05 5,6 C 91 % 1021,8 hPa 0,0 l/m 12,9 km/h (3 Bft) W 270 0 min 0,0 UV-I 11 W/m 4,2 C 0,9 C 17,7 km/h (3 Bft) 100,00 %
30.05.2020 06:00 5,6 C 91 % 1021,7 hPa 0,0 l/m 12,9 km/h (3 Bft) W 270 0 min 0,0 UV-I 9 W/m 4,2 C 0,9 C 17,7 km/h (3 Bft) 100,00 %
30.05.2020 05:55 5,6 C 91 % 1021,7 hPa 0,0 l/m 12,9 km/h (3 Bft) W 270 0 min 0,0 UV-I 9 W/m 4,2 C 0,9 C 19,3 km/h (3 Bft) 100,00 %
30.05.2020 05:50 5,6 C 91 % 1021,9 hPa 0,0 l/m 12,9 km/h (3 Bft) W 270 0 min 0,0 UV-I 7 W/m 4,2 C 0,9 C 17,7 km/h (3 Bft) 100,00 %
30.05.2020 05:45 5,7 C 90 % 1021,8 hPa 0,0 l/m 12,9 km/h (3 Bft) W 270 0 min 0,0 UV-I 7 W/m 4,2 C 1,0 C 19,3 km/h (3 Bft) 100,00 %
30.05.2020 05:40 5,7 C 90 % 1021,8 hPa 0,0 l/m 14,5 km/h (3 Bft) W 270 0 min 0,0 UV-I 7 W/m 4,2 C 0,2 C 19,3 km/h (3 Bft) 100,00 %
30.05.2020 05:35 5,7 C 90 % 1021,9 hPa 0,0 l/m 12,9 km/h (3 Bft) W 270 0 min 0,0 UV-I 7 W/m 4,2 C 1,0 C 17,7 km/h (3 Bft) 100,00 %
30.05.2020 05:30 5,7 C 90 % 1021,9 hPa 0,0 l/m 12,9 km/h (3 Bft) W 270 0 min 0,0 UV-I 5 W/m 4,2 C 1,0 C 16,1 km/h (3 Bft) 100,00 %
30.05.2020 05:25 5,7 C 90 % 1021,9 hPa 0,0 l/m 11,3 km/h (2 Bft) W 270 0 min 0,0 UV-I 0 W/m 4,2 C 2,0 C 16,1 km/h (3 Bft) 100,00 %
30.05.2020 05:20 5,8 C 89 % 1021,9 hPa 0,0 l/m 14,5 km/h (3 Bft) W 270 0 min 0,0 UV-I 0 W/m 4,1 C 0,3 C 19,3 km/h (3 Bft) 100,00 %
30.05.2020 05:15 5,8 C 89 % 1021,9 hPa 0,0 l/m 12,9 km/h (3 Bft) W 270 0 min 0,0 UV-I 0 W/m 4,1 C 1,2 C 17,7 km/h (3 Bft) 100,00 %
30.05.2020 05:10 5,8 C 89 % 1022,0 hPa 0,0 l/m 12,9 km/h (3 Bft) W 270 0 min 0,0 UV-I 0 W/m 4,1 C 1,2 C 17,7 km/h (3 Bft) 100,00 %
30.05.2020 05:05 5,8 C 89 % 1022,0 hPa 0,0 l/m 12,9 km/h (3 Bft) W 270 0 min 0,0 UV-I 0 W/m 4,1 C 1,2 C 17,7 km/h (3 Bft) 100,00 %
30.05.2020 05:00 5,8 C 89 % 1022,0 hPa 0,0 l/m 12,9 km/h (3 Bft) W 270 0 min 0,0 UV-I 0 W/m 4,1 C 1,2 C 16,1 km/h (3 Bft) 100,00 %
30.05.2020 04:55 5,8 C 89 % 1022,1 hPa 0,0 l/m 12,9 km/h (3 Bft) W 270 0 min 0,0 UV-I 0 W/m 4,1 C 1,2 C 17,7 km/h (3 Bft) 100,00 %
30.05.2020 04:50 5,8 C 89 % 1022,0 hPa 0,0 l/m 12,9 km/h (3 Bft) W 270 0 min 0,0 UV-I 0 W/m 4,1 C 1,2 C 17,7 km/h (3 Bft) 100,00 %
30.05.2020 04:45 5,8 C 89 % 1022,2 hPa 0,0 l/m 11,3 km/h (2 Bft) W 270 0 min 0,0 UV-I 0 W/m 4,1 C 2,1 C 16,1 km/h (3 Bft) 100,00 %
30.05.2020 04:40 5,8 C 89 % 1022,1 hPa 0,0 l/m 12,9 km/h (3 Bft) W 270 0 min 0,0 UV-I 0 W/m 4,1 C 1,2 C 16,1 km/h (3 Bft) 100,00 %
30.05.2020 04:35 5,8 C 89 % 1022,2 hPa 0,0 l/m 12,9 km/h (3 Bft) W 270 0 min 0,0 UV-I 0 W/m 4,1 C 1,2 C 17,7 km/h (3 Bft) 100,00 %
30.05.2020 04:30 5,9 C 89 % 1022,2 hPa 0,0 l/m 12,9 km/h (3 Bft) W 270 0 min 0,0 UV-I 0 W/m 4,2 C 1,3 C 19,3 km/h (3 Bft) 100,00 %
30.05.2020 04:25 5,9 C 89 % 1022,3 hPa 0,0 l/m 14,5 km/h (3 Bft) W 270 0 min 0,0 UV-I 0 W/m 4,2 C 0,4 C 17,7 km/h (3 Bft) 100,00 %
30.05.2020 04:20 5,9 C 89 % 1022,3 hPa 0,0 l/m 12,9 km/h (3 Bft) W 270 0 min 0,0 UV-I 0 W/m 4,2 C 1,3 C 17,7 km/h (3 Bft) 100,00 %
30.05.2020 04:15 5,8 C 90 % 1022,4 hPa 0,0 l/m 14,5 km/h (3 Bft) W-NW 292 0 min 0,0 UV-I 0 W/m 4,3 C 0,3 C 19,3 km/h (3 Bft) 100,00 %
30.05.2020 04:10 5,8 C 90 % 1022,4 hPa 0,0 l/m 12,9 km/h (3 Bft) W 270 0 min 0,0 UV-I 0 W/m 4,3 C 1,2 C 17,7 km/h (3 Bft) 100,00 %
30.05.2020 04:05 5,8 C 90 % 1022,5 hPa 0,0 l/m 12,9 km/h (3 Bft) W 270 0 min 0,0 UV-I 0 W/m 4,3 C 1,2 C 17,7 km/h (3 Bft) 100,00 %
30.05.2020 04:00 5,8 C 90 % 1022,5 hPa 0,0 l/m 14,5 km/h (3 Bft) W-NW 292 0 min 0,0 UV-I 0 W/m 4,3 C 0,3 C 19,3 km/h (3 Bft) 100,00 %
30.05.2020 03:55 5,9 C 89 % 1022,5 hPa 0,0 l/m 12,9 km/h (3 Bft) W-NW 292 0 min 0,0 UV-I 0 W/m 4,2 C 1,3 C 19,3 km/h (3 Bft) 100,00 %
30.05.2020 03:50 5,9 C 90 % 1022,6 hPa 0,0 l/m 14,5 km/h (3 Bft) W 270 0 min 0,0 UV-I 0 W/m 4,4 C 0,4 C 19,3 km/h (3 Bft) 100,00 %
30.05.2020 03:45 5,9 C 90 % 1022,5 hPa 0,0 l/m 14,5 km/h (3 Bft) W-NW 292 0 min 0,0 UV-I 0 W/m 4,4 C 0,4 C 19,3 km/h (3 Bft) 100,00 %
30.05.2020 03:40 5,8 C 90 % 1022,6 hPa 0,0 l/m 14,5 km/h (3 Bft) W-NW 292 0 min 0,0 UV-I 0 W/m 4,3 C 0,3 C 19,3 km/h (3 Bft) 100,00 %
30.05.2020 03:35 5,8 C 91 % 1022,6 hPa 0,0 l/m 14,5 km/h (3 Bft) W 270 0 min 0,0 UV-I 0 W/m 4,4 C 0,3 C 19,3 km/h (3 Bft) 100,00 %
30.05.2020 03:30 5,8 C 91 % 1022,6 hPa 0,0 l/m 14,5 km/h (3 Bft) W-NW 292 0 min 0,0 UV-I 0 W/m 4,4 C 0,3 C 19,3 km/h (3 Bft) 100,00 %
30.05.2020 03:25 5,8 C 92 % 1022,8 hPa 0,0 l/m 12,9 km/h (3 Bft) W-NW 292 0 min 0,0 UV-I 0 W/m 4,6 C 1,2 C 17,7 km/h (3 Bft) 100,00 %
30.05.2020 03:20 5,8 C 92 % 1022,8 hPa 0,0 l/m 14,5 km/h (3 Bft) W 270 0 min 0,0 UV-I 0 W/m 4,6 C 0,3 C 17,7 km/h (3 Bft) 100,00 %
30.05.2020 03:15 5,8 C 92 % 1022,8 hPa 0,0 l/m 14,5 km/h (3 Bft) W 270 0 min 0,0 UV-I 0 W/m 4,6 C 0,3 C 19,3 km/h (3 Bft) 100,00 %
30.05.2020 03:10 5,8 C 92 % 1022,8 hPa 0,0 l/m 14,5 km/h (3 Bft) W 270 0 min 0,0 UV-I 0 W/m 4,6 C 0,3 C 20,9 km/h (4 Bft) 100,00 %
30.05.2020 03:05 5,8 C 92 % 1023,0 hPa 0,0 l/m 14,5 km/h (3 Bft) W 270 0 min 0,0 UV-I 0 W/m 4,6 C 0,3 C 17,7 km/h (3 Bft) 100,00 %
30.05.2020 03:00 5,8 C 92 % 1022,9 hPa 0,0 l/m 14,5 km/h (3 Bft) W 270 0 min 0,0 UV-I 0 W/m 4,6 C 0,3 C 20,9 km/h (4 Bft) 100,00 %
30.05.2020 02:55 5,9 C 92 % 1022,9 hPa 0,0 l/m 14,5 km/h (3 Bft) W 270 0 min 0,0 UV-I 0 W/m 4,7 C 0,4 C 19,3 km/h (3 Bft) 100,00 %
30.05.2020 02:50 5,9 C 92 % 1023,0 hPa 0,0 l/m 14,5 km/h (3 Bft) W 270 0 min 0,0 UV-I 0 W/m 4,7 C 0,4 C 17,7 km/h (3 Bft) 100,00 %
30.05.2020 02:45 6,0 C 92 % 1023,0 hPa 0,0 l/m 16,1 km/h (3 Bft) W 270 0 min 0,0 UV-I 0 W/m 4,8 C -0,2 C 19,3 km/h (3 Bft) 100,00 %
30.05.2020 02:40 6,0 C 92 % 1023,1 hPa 0,0 l/m 16,1 km/h (3 Bft) W 270 0 min 0,0 UV-I 0 W/m 4,8 C -0,2 C 20,9 km/h (4 Bft) 100,00 %
30.05.2020 02:35 6,0 C 92 % 1023,2 hPa 0,0 l/m 14,5 km/h (3 Bft) W-NW 292 0 min 0,0 UV-I 0 W/m 4,8 C 0,5 C 20,9 km/h (4 Bft) 100,00 %
30.05.2020 02:30 6,0 C 91 % 1023,2 hPa 0,0 l/m 14,5 km/h (3 Bft) W 270 0 min 0,0 UV-I 0 W/m 4,6 C 0,5 C 20,9 km/h (4 Bft) 100,00 %
30.05.2020 02:25 6,1 C 91 % 1023,3 hPa 0,0 l/m 16,1 km/h (3 Bft) W 270 0 min 0,0 UV-I 0 W/m 4,7 C -0,1 C 20,9 km/h (4 Bft) 100,00 %
30.05.2020 02:20 6,1 C 92 % 1023,3 hPa 0,0 l/m 14,5 km/h (3 Bft) W 270 0 min 0,0 UV-I 0 W/m 4,9 C 0,7 C 20,9 km/h (4 Bft) 100,00 %
30.05.2020 02:15 6,1 C 92 % 1023,4 hPa 0,0 l/m 14,5 km/h (3 Bft) W 270 0 min 0,0 UV-I 0 W/m 4,9 C 0,7 C 27,4 km/h (4 Bft) 100,00 %
30.05.2020 02:10 6,2 C 91 % 1023,4 hPa 0,0 l/m 14,5 km/h (3 Bft) W 270 0 min 0,0 UV-I 0 W/m 4,8 C 0,8 C 22,5 km/h (4 Bft) 100,00 %
30.05.2020 02:05 6,2 C 92 % 1023,5 hPa 0,0 l/m 16,1 km/h (3 Bft) W 270 0 min 0,0 UV-I 0 W/m 5,0 C 0,0 C 20,9 km/h (4 Bft) 100,00 %
30.05.2020 02:00 6,2 C 92 % 1023,6 hPa 0,0 l/m 16,1 km/h (3 Bft) W 270 0 min 0,0 UV-I 0 W/m 5,0 C 0,0 C 22,5 km/h (4 Bft) 100,00 %
30.05.2020 01:55 6,2 C 92 % 1023,6 hPa 0,0 l/m 14,5 km/h (3 Bft) W 270 0 min 0,0 UV-I 0 W/m 5,0 C 0,8 C 20,9 km/h (4 Bft) 100,00 %
30.05.2020 01:50 6,2 C 92 % 1023,7 hPa 0,0 l/m 14,5 km/h (3 Bft) W 270 0 min 0,0 UV-I 0 W/m 5,0 C 0,8 C 20,9 km/h (4 Bft) 100,00 %
30.05.2020 01:45 6,2 C 92 % 1023,8 hPa 0,0 l/m 14,5 km/h (3 Bft) W 270 0 min 0,0 UV-I 0 W/m 5,0 C 0,8 C 20,9 km/h (4 Bft) 100,00 %
30.05.2020 01:40 6,3 C 92 % 1023,8 hPa 0,0 l/m 16,1 km/h (3 Bft) W 270 0 min 0,0 UV-I 0 W/m 5,1 C 0,1 C 22,5 km/h (4 Bft) 100,00 %
30.05.2020 01:35 6,2 C 92 % 1023,8 hPa 0,0 l/m 16,1 km/h (3 Bft) W 270 0 min 0,0 UV-I 0 W/m 5,0 C 0,0 C 20,9 km/h (4 Bft) 100,00 %
30.05.2020 01:30 6,3 C 92 % 1023,9 hPa 0,0 l/m 16,1 km/h (3 Bft) W 270 0 min 0,0 UV-I 0 W/m 5,1 C 0,1 C 25,7 km/h (4 Bft) 100,00 %
30.05.2020 01:25 6,3 C 91 % 1023,9 hPa 0,0 l/m 16,1 km/h (3 Bft) W 270 0 min 0,0 UV-I 0 W/m 4,9 C 0,1 C 22,5 km/h (4 Bft) 100,00 %
30.05.2020 01:20 6,3 C 91 % 1024,1 hPa 0,0 l/m 16,1 km/h (3 Bft) W 270 0 min 0,0 UV-I 0 W/m 4,9 C 0,1 C 24,1 km/h (4 Bft) 100,00 %
30.05.2020 01:15 6,3 C 91 % 1024,1 hPa 0,0 l/m 16,1 km/h (3 Bft) W 270 0 min 0,0 UV-I 0 W/m 4,9 C 0,1 C 20,9 km/h (4 Bft) 100,00 %
30.05.2020 01:10 6,4 C 91 % 1024,1 hPa 0,0 l/m 16,1 km/h (3 Bft) W 270 0 min 0,0 UV-I 0 W/m 5,0 C 0,3 C 24,1 km/h (4 Bft) 100,00 %
30.05.2020 01:05 6,4 C 91 % 1024,2 hPa 0,0 l/m 16,1 km/h (3 Bft) W 270 0 min 0,0 UV-I 0 W/m 5,0 C 0,3 C 24,1 km/h (4 Bft) 100,00 %
30.05.2020 01:00 6,4 C 91 % 1024,2 hPa 0,0 l/m 16,1 km/h (3 Bft) W 270 0 min 0,0 UV-I 0 W/m 5,0 C 0,3 C 20,9 km/h (4 Bft) 100,00 %
30.05.2020 00:55 6,5 C 91 % 1024,2 hPa 0,0 l/m 16,1 km/h (3 Bft) W 270 0 min 0,0 UV-I 0 W/m 5,1 C 0,4 C 22,5 km/h (4 Bft) 100,00 %
30.05.2020 00:50 6,6 C 90 % 1024,2 hPa 0,0 l/m 16,1 km/h (3 Bft) W 270 0 min 0,0 UV-I 0 W/m 5,1 C 0,5 C 22,5 km/h (4 Bft) 100,00 %
30.05.2020 00:45 6,6 C 90 % 1024,3 hPa 0,0 l/m 16,1 km/h (3 Bft) W 270 0 min 0,0 UV-I 0 W/m 5,1 C 0,5 C 20,9 km/h (4 Bft) 100,00 %
30.05.2020 00:40 6,6 C 90 % 1024,4 hPa 0,0 l/m 16,1 km/h (3 Bft) W 270 0 min 0,0 UV-I 0 W/m 5,1 C 0,5 C 22,5 km/h (4 Bft) 100,00 %
30.05.2020 00:35 6,6 C 90 % 1024,4 hPa 0,0 l/m 14,5 km/h (3 Bft) W 270 0 min 0,0 UV-I 0 W/m 5,1 C 1,3 C 19,3 km/h (3 Bft) 100,00 %
30.05.2020 00:30 6,7 C 90 % 1024,5 hPa 0,0 l/m 16,1 km/h (3 Bft) W 270 0 min 0,0 UV-I 0 W/m 5,2 C 0,6 C 24,1 km/h (4 Bft) 100,00 %
30.05.2020 00:25 6,7 C 90 % 1024,5 hPa 0,0 l/m 16,1 km/h (3 Bft) W 270 0 min 0,0 UV-I 0 W/m 5,2 C 0,6 C 20,9 km/h (4 Bft) 100,00 %
30.05.2020 00:20 6,7 C 91 % 1024,5 hPa 0,0 l/m 16,1 km/h (3 Bft) W 270 0 min 0,0 UV-I 0 W/m 5,3 C 0,6 C 20,9 km/h (4 Bft) 100,00 %
30.05.2020 00:15 6,6 C 91 % 1024,6 hPa 0,0 l/m 14,5 km/h (3 Bft) W 270 0 min 0,0 UV-I 0 W/m 5,2 C 1,3 C 19,3 km/h (3 Bft) 100,00 %
30.05.2020 00:10 6,7 C 90 % 1024,7 hPa 0,0 l/m 14,5 km/h (3 Bft) W 270 0 min 0,0 UV-I 0 W/m 5,2 C 1,4 C 20,9 km/h (4 Bft) 100,00 %
30.05.2020 00:05 6,7 C 91 % 1024,6 hPa 0,0 l/m 16,1 km/h (3 Bft) W 270 0 min 0,0 UV-I 0 W/m 5,3 C 0,6 C 19,3 km/h (3 Bft) 100,00 %
30.05.2020 00:00 6,8 C 90 % 1024,7 hPa 0,0 l/m 16,1 km/h (3 Bft) W-SW 247 0 min 0,0 UV-I 0 W/m 5,3 C 0,7 C 20,9 km/h (4 Bft) 100,00 %
_ Min-Zeit 11:55 12:50 09:00 - 10:25 - - - - - 04:35 07:15 12:00 00:00
Minimum _ 4,9 C 88 % 1021,2 hPa - 3,2 km/h (1 Bft) - - - - - 4,1 C -0,3 C 4,8 km/h (1 Bft) 100,00 %
_ Max-Zeit 00:00 10:05 00:00 00:00 00:00 - - 11:55 12:40 12:35 12:40 11:15 02:15 00:00
Maximum _ 6,8 C 97 % 1024,7 hPa 0,0 l/m 16,1 km/h
W-SW (3 Bft)
- - 5 min 4,9 UV-I 680 W/m 5,4 C 5,6 C 27,4 km/h
W (4 Bft)
100,00 %
Durchschnitt _ 5,7 C 93 % 1022,2 hPa #0,0 l/m 11,8 km/h (2 Bft) W - #1:00 h 1,3 UV-I 116 W/m 4,6 C 1,8 C 17,8 km/h (3 Bft) 100,00 %